When you browse on this site, cookies collect data to enhance your experience and personalize the content and advertising you see.
Visit our Privacy Policy to learn more. By continuing to use the site, you agree to this use of cookies and data.
  • In Romania
  • List of Countries
  • For 7 days
  • Water Temperature
  • Satellite Maps
  • Weather Map
  • Weather Widgets
  • user-avatar
    Login

    Hourly Weather Newark

    Today, 20 February, Wednesday

    Time Temperature Precipitation Wind Pressure Humidity
    00:00 -3°C° 0 mm 2 mps 776 mmHg 38%
    01:00 -3°C° 0 mm 2 mps 776 mmHg 38%
    02:00 -1°C° 0 mm 1 mps 776 mmHg 38%
    03:00 -1°C° 0 mm 1 mps 775 mmHg 37%
    04:00 -1°C° 0 mm 1 mps 775 mmHg 37%
    05:00 -1°C° 0 mm 1 mps 775 mmHg 36%
    06:00 -1°C° 0 mm 1 mps 775 mmHg 36%
    07:00 -1°C° 0 mm 1 mps 775 mmHg 36%
    08:00 0°C° 0 mm 1 mps 775 mmHg 36%
    09:00 0°C° 0 mm 1 mps 775 mmHg 35%
    10:00 +1°C° 0 mm 1 mps 775 mmHg 35%
    11:00 +1°C° 0.2 mm 1 mps 775 mmHg 45%
    12:00 0°C° 0.2 mm 1 mps 774 mmHg 56%
    13:00 -2°C° 0.2 mm 2 mps 773 mmHg 67%
    14:00 0°C° 0.5 mm 1 mps 773 mmHg 74%
    15:00 0°C° 0.5 mm 1 mps 772 mmHg 81%
    16:00 0°C° 0.5 mm 1 mps 771 mmHg 87%
    17:00 -1°C° 0.3 mm 2 mps 770 mmHg 89%
    18:00 -1°C° 0.3 mm 3 mps 769 mmHg 91%
    19:00 -1°C° 0.3 mm 4 mps 768 mmHg 93%
    20:00 0°C° 1.9 mm 3 mps 767 mmHg 94%
    21:00 +1°C° 1.9 mm 3 mps 766 mmHg 96%
    22:00 +2°C° 1.9 mm 2 mps 765 mmHg 98%
    23:00 +2°C° 3.3 mm 2 mps 763 mmHg 98%

    Tomorrow, 21 February, Thursday

    Time Temperature Precipitation Wind Pressure Humidity
    00:00 +3°C° 3.3 mm 2 mps 762 mmHg 98%
    01:00 +3°C° 3.3 mm 2 mps 761 mmHg 99%
    02:00 +3°C° 0.7 mm 2 mps 760 mmHg 99%
    03:00 +3°C° 0.7 mm 2 mps 759 mmHg 99%
    04:00 +3°C° 0.7 mm 2 mps 758 mmHg 99%
    05:00 +3°C° 0 mm 2 mps 758 mmHg 99%
    06:00 +3°C° 0 mm 2 mps 757 mmHg 99%
    07:00 +2°C° 0 mm 3 mps 757 mmHg 99%
    08:00 +3°C° 0 mm 3 mps 758 mmHg 95%
    09:00 +4°C° 0 mm 4 mps 758 mmHg 92%
    10:00 +5°C° 0 mm 4 mps 758 mmHg 89%
    11:00 +7°C° 0 mm 5 mps 758 mmHg 77%
    12:00 +9°C° 0 mm 5 mps 758 mmHg 65%
    13:00 +10°C° 0 mm 5 mps 759 mmHg 53%
    14:00 +10°C° 0 mm 5 mps 759 mmHg 52%
    15:00 +9°C° 0 mm 5 mps 759 mmHg 51%
    16:00 +9°C° 0 mm 5 mps 760 mmHg 51%
    17:00 +8°C° 0 mm 4 mps 760 mmHg 56%
    18:00 +6°C° 0 mm 4 mps 761 mmHg 61%
    19:00 +5°C° 0 mm 3 mps 762 mmHg 66%
    20:00 +4°C° 0 mm 3 mps 763 mmHg 66%
    21:00 +3°C° 0 mm 4 mps 763 mmHg 66%
    22:00 +3°C° 0 mm 4 mps 764 mmHg 66%
    23:00 +1°C° 0 mm 4 mps 765 mmHg 66%

    Day after tomorrow, 22 February, Friday

    Time Temperature Precipitation Wind Pressure Humidity
    00:00 +1°C° 0 mm 4 mps 765 mmHg 65%
    01:00 0°C° 0 mm 4 mps 766 mmHg 65%
    02:00 0°C° 0 mm 4 mps 766 mmHg 66%
    03:00 0°C° 0 mm 4 mps 766 mmHg 67%
    04:00 +1°C° 0 mm 3 mps 766 mmHg 68%
    05:00 +1°C° 0 mm 3 mps 767 mmHg 69%
    06:00 0°C° 0 mm 3 mps 768 mmHg 70%
    07:00 0°C° 0 mm 3 mps 768 mmHg 71%
    08:00 +1°C° 0 mm 3 mps 769 mmHg 66%
    09:00 +2°C° 0 mm 3 mps 769 mmHg 61%
    10:00 +3°C° 0 mm 3 mps 770 mmHg 57%
    11:00 +4°C° 0 mm 3 mps 770 mmHg 54%
    12:00 +5°C° 0 mm 3 mps 770 mmHg 51%
    13:00 +7°C° 0 mm 3 mps 770 mmHg 49%
    14:00 +7°C° 0 mm 3 mps 770 mmHg 50%
    15:00 +7°C° 0 mm 3 mps 770 mmHg 51%
    16:00 +7°C° 0 mm 3 mps 770 mmHg 53%
    17:00 +5°C° 0 mm 3 mps 771 mmHg 56%
    18:00 +4°C° 0 mm 3 mps 771 mmHg 59%
    19:00 +3°C° 0 mm 3 mps 772 mmHg 62%
    20:00 +3°C° 0 mm 3 mps 772 mmHg 62%
    21:00 +4°C° 0 mm 2 mps 772 mmHg 63%
    22:00 +3°C° 0 mm 2 mps 773 mmHg 63%
    23:00 +4°C° 0 mm 1 mps 773 mmHg 64%

    23 February, Saturday

    Time Temperature Precipitation Wind Pressure Humidity
    00:00 +4°C° 0 mm 1 mps 773 mmHg 66%
    01:00 +3°C° 0 mm 1 mps 773 mmHg 67%
    02:00 +3°C° 0 mm 1 mps 773 mmHg 68%
    03:00 +3°C° 0 mm 1 mps 772 mmHg 70%
    04:00 +3°C° 0 mm 1 mps 772 mmHg 72%
    05:00 +3°C° 0 mm 1 mps 772 mmHg 72%
    06:00 +3°C° 0 mm 1 mps 772 mmHg 73%
    07:00 +3°C° 0 mm 1 mps 772 mmHg 73%
    08:00 +4°C° 0 mm 1 mps 772 mmHg 69%
    09:00 +3°C° 0 mm 2 mps 772 mmHg 65%
    10:00 +4°C° 0 mm 2 mps 772 mmHg 61%
    11:00 +5°C° 0 mm 2 mps 771 mmHg 60%
    12:00 +5°C° 0 mm 3 mps 770 mmHg 60%
    13:00 +5°C° 0 mm 3 mps 769 mmHg 59%
    14:00 +5°C° 0.1 mm 3 mps 769 mmHg 63%
    15:00 +5°C° 0.1 mm 3 mps 768 mmHg 66%
    16:00 +5°C° 0.1 mm 3 mps 767 mmHg 69%
    17:00 +5°C° 0.4 mm 3 mps 767 mmHg 74%
    18:00 +5°C° 0.4 mm 3 mps 766 mmHg 79%
    19:00 +4°C° 0.4 mm 3 mps 765 mmHg 84%
    20:00 +4°C° 1.3 mm 3 mps 764 mmHg 88%
    21:00 +5°C° 1.3 mm 2 mps 762 mmHg 91%
    22:00 +5°C° 1.3 mm 2 mps 761 mmHg 95%
    23:00 +6°C° 1.4 mm 2 mps 759 mmHg 96%

    24 February, Sunday

    Time Temperature Precipitation Wind Pressure Humidity
    00:00 +6°C° 1.4 mm 2 mps 758 mmHg 97%
    01:00 +6°C° 1.4 mm 2 mps 756 mmHg 98%
    02:00 +8°C° 3.8 mm 1 mps 755 mmHg 98%
    03:00 +8°C° 3.8 mm 1 mps 754 mmHg 98%
    04:00 +8°C° 3.8 mm 1 mps 752 mmHg 98%
    05:00 +8°C° 1 mm 1 mps 751 mmHg 98%
    06:00 +8°C° 1 mm 2 mps 751 mmHg 98%
    07:00 +8°C° 1 mm 2 mps 750 mmHg 98%
    08:00 +10°C° 0.8 mm 3 mps 749 mmHg 97%
    09:00 +11°C° 0.8 mm 4 mps 747 mmHg 96%
    10:00 +13°C° 0.8 mm 4 mps 746 mmHg 95%
    11:00 +15°C° 0.1 mm 6 mps 746 mmHg 76%
    12:00 +17°C° 0.1 mm 8 mps 745 mmHg 58%
    13:00 +19°C° 0.1 mm 10 mps 744 mmHg 40%
    14:00 +17°C° 0 mm 10 mps 744 mmHg 42%
    15:00 +14°C° 0 mm 10 mps 745 mmHg 44%
    16:00 +11°C° 0 mm 10 mps 745 mmHg 46%
    17:00 +11°C° 0 mm 10 mps 746 mmHg 47%
    18:00 +9°C° 0 mm 10 mps 746 mmHg 48%
    19:00 +8°C° 0 mm 10 mps 747 mmHg 49%
    20:00 +7°C° 0 mm 10 mps 747 mmHg 49%
    21:00 +6°C° 0 mm 10 mps 747 mmHg 49%
    22:00 +6°C° 0 mm 10 mps 748 mmHg 49%
    23:00 +5°C° 0 mm 10 mps 748 mmHg 48%

    25 February, Monday

    Time Temperature Precipitation Wind Pressure Humidity
    00:00 +3°C° 0 mm 10 mps 749 mmHg 47%
    01:00 +2°C° 0 mm 10 mps 749 mmHg 46%
    02:00 +2°C° 0 mm 10 mps 750 mmHg 45%
    03:00 +1°C° 0 mm 10 mps 751 mmHg 43%
    04:00 +1°C° 0 mm 10 mps 752 mmHg 42%
    05:00 0°C° 0 mm 10 mps 753 mmHg 42%
    06:00 0°C° 0 mm 10 mps 754 mmHg 42%
    07:00 -1°C° 0 mm 9 mps 755 mmHg 42%
    08:00 -1°C° 0 mm 9 mps 756 mmHg 39%
    09:00 0°C° 0 mm 10 mps 757 mmHg 36%
    10:00 0°C° 0 mm 10 mps 759 mmHg 33%
    11:00 +1°C° 0 mm 10 mps 759 mmHg 31%
    12:00 +1°C° 0 mm 9 mps 760 mmHg 30%
    13:00 +1°C° 0 mm 9 mps 761 mmHg 28%
    14:00 +1°C° 0 mm 9 mps 762 mmHg 28%
    15:00 +1°C° 0 mm 9 mps 763 mmHg 29%
    16:00 +1°C° 0 mm 8 mps 764 mmHg 30%
    17:00 0°C° 0 mm 8 mps 765 mmHg 32%
    18:00 -1°C° 0 mm 7 mps 767 mmHg 34%
    19:00 -2°C° 0 mm 7 mps 768 mmHg 37%
    20:00 -3°C° 0 mm 7 mps 769 mmHg 37%
    21:00 -4°C° 0 mm 6 mps 770 mmHg 37%
    22:00 -4°C° 0 mm 6 mps 770 mmHg 37%
    23:00 -5°C° 0 mm 6 mps 771 mmHg 35%
    Show more